This demonstration page uses our WeatherBlox Daily Observations layout. Learn more.

Left ArrowRight Arrow

47.50024, -111.30081

Hourly Observations for April 14, 2022

Temp ( °F °C ) Dew Point ( °F °C ) Humidity (%) Winds ( mph kmh ) Pressure ( in mb ) Visibility ( mi km ) Precip ( " mm )
12:53 am 00:53 Cloudy 13 -10.6 9 -12.8 84 84 WNW 3 6 30.31 1026 10 16 0.00 0.00
1:53 am 01:53 Cloudy 13 -10.6 10 -12.2 88 88 Calm 30.30 1026 10 16 0.00 0.00
2:53 am 02:53 Cloudy with Light Snow 14 -10 10 -12.2 84 84 W 3 6 30.28 1025 8 13 0.00 0.00
3:53 am 03:53 Cloudy 14 -10 10 -12.2 84 84 W 5 7 30.27 1025 10 16 0.00 0.00
4:53 am 04:53 Cloudy with Light Snow 14 -10 11 -11.7 88 88 SW 5 7 30.25 1025 7 11 0.00 0.00
5:53 am 05:53 Cloudy 14 -10 11 -11.7 88 88 SW 6 9 30.24 1024 10 16 0.00 0.00
6:53 am 06:53 Cloudy with Light Snow 14 -10 11 -11.7 88 88 WSW 5 7 30.25 1024 5 8 0.00 0.00
7:04 am 07:04 Cloudy with Light Snow 14 -10 11 -11.7 88 88 W 5 7 30.31 1026 3 4 0.00 0.00
7:14 am 07:14 Cloudy with Light Snow 14 -10 11 -11.7 88 88 W 5 7 30.31 1026 1 2 0.00 0.00
7:29 am 07:29 Cloudy with Light Snow 14 -10 11 -11.7 88 88 W 5 7 30.31 1026 2 3 0.00 0.00
7:42 am 07:42 Cloudy with Light Snow 14 -10 11 -11.7 88 88 W 5 7 30.32 1027 3 5 0.00 0.00
7:53 am 07:53 Cloudy with Light Snow 15 -9.4 11 -11.7 84 84 W 5 7 30.26 1025 3 5 0.00 0.00
8:32 am 08:32 Cloudy with Light Snow 15 -9.4 11 -11.7 84 84 W 5 7 30.31 1026 3 4 0.00 0.00
8:46 am 08:46 Cloudy with Light Snow 16 -8.9 12 -11.1 84 84 W 5 7 30.30 1026 2 3 0.00 0.00
8:53 am 08:53 Cloudy with Light Snow 16 -8.9 12 -11.1 84 84 WNW 5 7 30.25 1025 3 4 0.00 0.00
9:23 am 09:23 Cloudy with Light Snow 17 -8.3 11 -11.7 77 77 WNW 5 7 30.29 1026 3 5 0.00 0.00
9:53 am 09:53 Cloudy 18 -7.8 10 -12.2 71 71 NNW 5 7 30.24 1024 9 14 0.00 0.00
10:53 am 10:53 Cloudy 19 -7.2 5 -15 54 54 N 8 13 30.22 1023 10 16 0.00 0.00
11:53 am 11:53 Cloudy 19 -7.2 4 -15.6 51 51 NNW 6 9 30.21 1023 10 16 0.00 0.00
12:53 pm 12:53 Cloudy 20 -6.7 5 -15 52 52 N 5 7 30.20 1023 10 16 0.00 0.00
1:53 pm 13:53 Cloudy 20 -6.7 7 -13.9 57 57 N 6 9 30.20 1023 10 16 0.00 0.00
2:53 pm 14:53 Cloudy 21 -6.1 8 -13.3 57 57 N 8 13 30.20 1023 10 16 0.00 0.00
3:53 pm 15:53 Cloudy 21 -6.1 7 -13.9 54 54 NNW 8 13 30.18 1022 10 16 0.00 0.00
4:53 pm 16:53 Cloudy 21 -6.1 8 -13.3 57 57 NNW 6 9 30.16 1021 10 16 0.00 0.00
5:53 pm 17:53 Cloudy 20 -6.7 10 -12.2 65 65 N 9 15 30.16 1022 8 13 0.00 0.00
6:53 pm 18:53 Cloudy with Light Snow 19 -7.2 11 -11.7 71 71 N 7 11 30.17 1022 7 11 0.00 0.00
7:53 pm 19:53 Cloudy 19 -7.2 9 -12.8 65 65 N 12 19 30.16 1021 10 16 0.00 0.00
8:53 pm 20:53 Cloudy 18 -7.8 10 -12.2 71 71 N 6 9 30.18 1022 10 16 0.00 0.00
9:53 pm 21:53 Cloudy 17 -8.3 11 -11.7 77 77 N 3 6 30.19 1022 9 14 0.00 0.00
10:53 pm 22:53 Cloudy 17 -8.3 12 -11.1 80 80 NW 3 6 30.19 1022 10 16 0.00 0.00
11:53 pm 23:53 Cloudy with Light Snow 17 -8.3 11 -11.7 77 77 NNW 5 7 30.19 1022 10 16 0.00 0.00

Powered by AerisWeather